This is the latest recevied weather packets stored in our database for station/object KC0QBU-13. If no packets are shown the sender has not sent any weather packets the latest 10 day(s).
| Time | Temp. | Humidity | Pressure | Rain* | Wind** | Luminosity | Snow |
|---|---|---|---|---|---|---|---|
| 1777739631 | 15° C | 42% | 1022.7 hPa | 0 mm | - | - | - |
| 1777739331 | 15° C | 41% | 1022.7 hPa | 0 mm | - | - | - |
| 1777739001 | 14.44° C | 40% | 1022.8 hPa | 0 mm | - | - | - |
| 1777738701 | 14.44° C | 36% | 1022.8 hPa | 0 mm | - | - | - |
| 1777738371 | 15° C | 41% | 1022.8 hPa | 0 mm | - | - | - |
| 1777738071 | 15° C | 41% | 1022.7 hPa | 0 mm | - | - | - |
| 1777737771 | 14.44° C | 48% | 1022.7 hPa | 0 mm | - | - | - |
| 1777737471 | 13.89° C | 42% | 1022.7 hPa | 0 mm | - | - | - |
| 1777737140 | 13.89° C | 45% | 1022.7 hPa | 0 mm | - | - | - |
| 1777736841 | 13.89° C | 43% | 1022.7 hPa | 0 mm | - | - | - |
| 1777736540 | 13.89° C | 42% | 1022.7 hPa | 0 mm | - | - | - |
| 1777736210 | 13.33° C | 39% | 1022.7 hPa | 0 mm | - | - | - |
| 1777735910 | 13.33° C | 40% | 1022.6 hPa | 0 mm | - | - | - |
| 1777735611 | 13.33° C | 41% | 1022.7 hPa | 0 mm | - | - | - |
| 1777735310 | 13.33° C | 43% | 1022.6 hPa | 0 mm | - | - | - |
| 1777734981 | 12.78° C | 45% | 1022.7 hPa | 0 mm | - | - | - |
| 1777734680 | 12.78° C | 46% | 1022.7 hPa | 0 mm | - | - | - |
| 1777734350 | 12.78° C | 48% | 1022.7 hPa | 0 mm | - | - | - |
| 1777734050 | 12.22° C | 48% | 1022.7 hPa | 0 mm | - | - | - |
| 1777733721 | 12.22° C | 51% | 1022.6 hPa | 0 mm | - | - | - |
| 1777733390 | 12.22° C | 50% | 1022.6 hPa | 0 mm | - | - | - |
| 1777733091 | 11.67° C | 51% | 1022.7 hPa | 0 mm | - | - | - |
| 1777732791 | 11.67° C | 52% | 1022.6 hPa | 0 mm | - | - | - |
| 1777732490 | 11.11° C | 55% | 1022.5 hPa | 0 mm | - | - | - |
| 1777732190 | 11.11° C | 56% | 1022.5 hPa | 0 mm | - | - | - |
* Rain latest hour (hover to see other rain measurements)
** Current wind speed in m/s (hover to see current wind gust speed)